星链-4075 (STARLINK-4075 )

导读 | 星芒AI

STARLINK-4075 是 SpaceX Starlink 卫星互联网项目中的一颗低轨卫星,属于“星链”计划的数千颗卫星之一。该卫星旨在为全球用户提供高速、低延迟的宽带互联网服务,尤其覆盖偏远和网络基础设施薄弱的地区。它运行在约 550 公里的轨道高度,采用先进的通信技术,支持全球范围内的数据传输。作为 Starlink 群体的一部分,STARLINK-4075 有助于提升全球互联网接入的普及率和稳定性。

基本信息
目录编号:
52670
目录名称:
STARLINK-4075
国际标识:
2022-053Q
轨道中心:
EARTH
卫星名称:
星链-4075
卫星全名:
星链-4075 (STARLINK-4075 )
卫星状态:
在轨 (已飞行1267 天)
发射日期:
2022-05-18 UTC
国别 :
美国 (US)
星等 :
--
轨道信息
数据来源 国际轨道数据 AOE轨道数据
星历时间 2025-11-04T20:59:59+0800
11小时前
查看轨道信息
2025-11-03T04:00:00+0800
2天前
查看轨道信息
半长轴 6917.858km 6917.85km
偏心率 0.000119 0.0001453
轨道倾角 53.218° 53.219°
近地点辐角 79.525° 70.174°
升交点赤经 355.998° 3.670°
平近点角 280.588° 5.568°
近地点 538.899km 538.709km
远地点 540.547km 540.721km
周期 95.437分钟 95.437分钟
每日圈数 15.088475 15.0885
详细信息
固有亮度:
5
最大亮度:
2.5
卫星平台:
Starlink v1.5
覆盖范围:
全球
运营商:
太空探索技术公司
运营商所在国:
美国
制造商(研发单位):
太空探索技术公司
制造商所在国:
美国
使用方式:
暂无
卫星简介
星链(Starlink)计划是由太空探索技术公司(SpaceX)提出的一个巨型低轨卫星互联网星座项目,计划在2019年至2024年间在太空搭建由约1.2万颗卫星组成的“星链”网络,其中1584颗将部署在地球上空550千米处的近地轨道,并从2020年开始工作。该卫星仍在工作。
2D轨道图
3D轨道图
轨道高度分析图
轨道倾角分析图
轨道综合分析图
查看轨道综合分析图